Lanai City, HI

8:44 PM HST on September 25, 2016 (GMT -1000)
Lanai City

Weather History for PHNY - October, 2013

Change the Weather History Date:

Thursday, October 31, 2013

  Actual Average Record
Temperature  
Mean Temperature 74 °F -  
Max Temperature 82 °F 80 °F 84 °F (1979)
Min Temperature 66 °F 64 °F 58 °F (1949)
Cooling Degree Days 9    
Growing Degree Days 24 (Base 50)    
Moisture  
Dew Point 67 °F    
Average Humidity 80    
Maximum Humidity 100    
Minimum Humidity 58    
Precipitation  
Precipitation 0.03 in - - ()
Sea Level Pressure  
Sea Level Pressure 30.08 in    
Wind  
Wind Speed 8 mph (NE)    
Max Wind Speed 26 mph    
Max Gust Speed 38 mph    
Visibility 10 miles    
Events Rain    
Averages and records for this station are not official NWS values.
T = Trace of Precipitation, MM = Missing Value Source: NWS Daily Summary

Daily Weather History Graph

Daily Weather History Graph

Search for Another Location

Airport or City:

Trip Planner

Search our weather history database for the weather conditions in past years. The results will help you decide how hot, cold, wet, or windy it might be!

Date:

Astronomy

Oct. 31, 2013 Rise Set
Actual Time 6:29 AM HST 5:52 PM HST
Civil Twilight 6:07 AM HST 6:15 PM HST
Nautical Twilight 5:40 AM HST 6:41 PM HST
Astronomical Twilight 5:14 AM HST 7:07 PM HST
Moon 3:51 AM HST (10/31) 4:00 PM HST (10/31)
Length of Visible Light 12h 08m
Length of Day
11h 22m
Waning Crescent, 8% of the Moon is Illuminated
Oct 31
Waning Crescent
Nov 3
New
Nov 9
First Quarter
Nov 17
Full
Nov 25
Last Quarter

Hourly Weather History & Observations

Time (HST) Temp. Heat Index Dew Point Humidity Pressure Visibility Wind Dir Wind Speed Gust Speed Precip Events Conditions
12:56 AM 68.0 °F - 66.9 °F 96% 30.07 in 10.0 mi East 6.9 mph - N/A   Mostly Cloudy
1:56 AM 70.0 °F - 68.9 °F 96% 30.05 in 10.0 mi ESE 3.5 mph - N/A   Partly Cloudy
2:08 AM 69.8 °F - 68.0 °F 94% 30.11 in 10.0 mi East 4.6 mph - N/A   Partly Cloudy
2:56 AM 66.9 °F - 66.9 °F 100% 30.03 in 10.0 mi East 5.8 mph - N/A   Clear
3:56 AM 66.9 °F - 66.9 °F 100% 30.04 in 10.0 mi ESE 5.8 mph - N/A   Clear
4:56 AM 68.0 °F - 68.0 °F 100% 30.03 in 10.0 mi Calm Calm - N/A   Clear
5:56 AM 66.9 °F - 66.9 °F 100% 30.05 in 10.0 mi Calm Calm - N/A   Clear
6:56 AM 66.9 °F - 66.9 °F 100% 30.06 in 10.0 mi East 3.5 mph - N/A   Clear
7:56 AM 72.9 °F - 68.0 °F 85% 30.08 in 10.0 mi Calm Calm - N/A   Clear
8:25 AM 75.2 °F - 69.8 °F 83% 30.15 in 10.0 mi Calm Calm - N/A   Mostly Cloudy
8:33 AM 75.2 °F - 68.0 °F 78% 30.15 in 10.0 mi Calm Calm - N/A   Scattered Clouds
8:56 AM 79.0 °F - 68.9 °F 71% 30.09 in 10.0 mi WSW 4.6 mph - N/A   Clear
9:14 AM 78.8 °F - 68.0 °F 69% 30.16 in 10.0 mi Variable 3.5 mph - N/A   Mostly Cloudy
9:41 AM 82.4 °F 84.6 °F 66.2 °F 58% 30.16 in 10.0 mi West 6.9 mph - N/A   Scattered Clouds
9:56 AM 79.0 °F - 66.9 °F 66% 30.09 in 10.0 mi West 4.6 mph - N/A   Scattered Clouds
10:08 AM 78.8 °F - 66.2 °F 65% 30.16 in 10.0 mi SW 4.6 mph - N/A   Mostly Cloudy
10:56 AM 78.8 °F - 66.2 °F 65% 30.15 in 10.0 mi WSW 5.8 mph - N/A   Mostly Cloudy
11:27 AM 80.6 °F 82.7 °F 66.2 °F 61% 30.14 in 10.0 mi West 10.4 mph - N/A   Mostly Cloudy
11:56 AM 74.8 °F - 68.0 °F 79% 30.08 in 10.0 mi West 6.9 mph - 0.02 in Rain Light Rain
12:56 PM 77.0 °F - 70.0 °F 79% 30.05 in 10.0 mi Calm Calm - 0.01 in Rain Light Rain
1:56 PM 78.8 °F - 68.0 °F 69% 30.09 in 10.0 mi NNW 6.9 mph - N/A   Mostly Cloudy
2:20 PM 78.8 °F - 68.0 °F 69% 30.08 in 10.0 mi NE 13.8 mph - N/A   Scattered Clouds
2:56 PM 81.0 °F 83.8 °F 68.0 °F 65% 30.01 in 10.0 mi NE 16.1 mph - N/A   Clear
3:56 PM 79.0 °F - 66.9 °F 66% 30.01 in 10.0 mi NE 21.9 mph 28.8 mph N/A   Clear
4:56 PM 77.0 °F - 66.9 °F 71% 30.02 in 10.0 mi NE 17.3 mph 25.3 mph N/A   Clear
5:56 PM 72.9 °F - 66.9 °F 82% 30.04 in 10.0 mi ENE 13.8 mph - N/A   Clear
6:56 PM 72.9 °F - 66.9 °F 82% 30.05 in 10.0 mi ENE 19.6 mph 24.2 mph N/A   Clear
7:56 PM 72.0 °F - 64.9 °F 78% 30.06 in 10.0 mi NE 23.0 mph 27.6 mph N/A   Clear
8:56 PM 72.0 °F - 65.8 °F 81% 30.07 in 10.0 mi ENE 20.7 mph - N/A   Clear
9:34 PM 73.4 °F - 66.2 °F 78% 30.15 in 10.0 mi NE 11.5 mph 25.3 mph N/A   Mostly Cloudy
9:43 PM 73.4 °F - 66.2 °F 78% 30.14 in 10.0 mi East 10.4 mph - N/A   Mostly Cloudy
9:56 PM 72.9 °F - 66.9 °F 82% 30.07 in 10.0 mi ENE 15.0 mph 20.7 mph N/A   Mostly Cloudy
10:10 PM 71.6 °F - 66.2 °F 83% 30.13 in 10.0 mi NNE 21.9 mph 27.6 mph N/A   Partly Cloudy
10:23 PM 71.6 °F - 66.2 °F 83% 30.12 in 10.0 mi NE 26.5 mph 38.0 mph N/A   Clear
10:56 PM 72.0 °F - 66.9 °F 84% 30.05 in 10.0 mi NE 24.2 mph 36.8 mph N/A   Clear
11:56 PM 72.0 °F - 65.8 °F 81% 30.05 in 10.0 mi NNE 17.3 mph 33.4 mph N/A   Clear